Simultaneous Nadir Overpasses (SNOs) Predictions

Prediction of SNOs between FY3D and NOAA-19 Satellite Orbit:

Table of predicted SNOs for the next 14.0 days since TLE Epoch: 4/10/2019
Index Date (FY3D) Time (FY3D) Lat,Lon (FY3D) SZA (FY3D ) Date (NOAA-19) Time (NOAA-19) Lat,Lon (NOAA-19) SZA (NOAA-19 ) Distance(km) Time Diff (sec)
1 04/18/2019 14:33:08 -80.20, 102.29 108.41 04/18/2019 14:31:53 -80.18, 102.05 108.36 5.05 75
2 04/18/2019 15:23:53 80.20, -90.40 71.58 04/18/2019 15:22:57 80.21, -90.26 71.60 2.96 56
3 04/18/2019 16:14:37 -80.19, 76.97 108.45 04/18/2019 16:13:53 -80.20, 76.83 108.41 2.76 44
4 04/18/2019 17:05:22 80.19,-115.72 71.54 04/18/2019 17:04:58 80.21,-115.80 71.58 2.21 24
5 04/18/2019 17:56:07 -80.21, 51.35 108.43 04/18/2019 17:55:54 -80.20, 51.30 108.43 2.29 13
6 04/18/2019 18:46:52 80.22,-141.35 71.57 04/18/2019 18:46:59 80.21,-141.33 71.55 1.16 7
7 04/18/2019 19:37:36 -80.21, 26.03 108.46 04/18/2019 19:37:54 -80.21, 26.09 108.47 1.14 18
8 04/18/2019 20:28:21 80.21,-166.66 71.53 04/18/2019 20:28:59 80.22,-166.54 71.51 2.66 38
9 04/18/2019 21:19:05 -80.20, 0.72 108.50 04/18/2019 21:19:55 -80.21, 0.55 108.50 3.29 50
10 04/18/2019 22:09:50 80.21, 168.02 71.50 04/18/2019 22:11:00 80.22, 167.92 71.49 2.66 70




NCC Satellite Simultaneous Nadir Overpasses (SNOs) Prediction Service
